, AK

(GMT )
Annette Island

Weather History for PANT - August, 2013

Change the Weather History Date:

Thursday, August 29, 2013

  Actual Average Record
Temperature  
Mean Temperature 61 °F 57 °F  
Max Temperature 70 °F 63 °F 82 °F (1974)
Min Temperature 52 °F 52 °F 42 °F (1960)
Degree Days  
Heating Degree Days 4    
Month to date heating degree days 144 179  
Since 1 June heating degree days 515 683  
Since 1 July heating degree days 295 385  
Cooling Degree Days 0    
Month to date cooling degree days 2  
Year to date cooling degree days 22  
Since 1 June cooling degree days 22  
Growing Degree Days 11 (Base 50)    
Moisture  
Dew Point 56 °F    
Average Humidity 0    
Maximum Humidity 0    
Minimum Humidity 0    
Precipitation  
Precipitation 0.10 in 0.27 in 1.09 in (1980)
Month to date precipitation 3.87 6.40  
Year to date precipitation 50.76 54.35  
Snow  
Snow 0.00 in 0.00 in 0.00 in (2016)
Month to date snowfall 0.0 0.0  
Since 1 June snowfall 0.0 0.0  
Since 1 July snowfall 0.0 0.0  
Snow Depth 0.00 in    
Sea Level Pressure  
Sea Level Pressure 29.78 in    
Wind  
Wind Speed 2 mph (WSW)    
Max Wind Speed 9 mph    
Max Gust Speed 12 mph    
Visibility 10 miles    
Events Rain    
T = Trace of Precipitation, MM = Missing Value Source: NWS Daily Summary

Daily Weather History Graph

Daily Weather History Graph

Search for Another Location

Airport or City:

Trip Planner

Search our weather history database for the weather conditions in past years. The results will help you decide how hot, cold, wet, or windy it might be!

Date:

Astronomy

Aug. 29, 2013 Rise Set
Actual Time 5:47 AM AKDT 7:45 PM AKDT
Civil Twilight 5:08 AM AKDT 8:23 PM AKDT
Nautical Twilight 4:19 AM AKDT 9:12 PM AKDT
Astronomical Twilight 3:22 AM AKDT 10:08 PM AKDT
Moon No Moon Rise 3:51 PM AKDT (8/29)
Length of Visible Light 15h 14m
Length of Day
13h 57m
Last Quarter, 36% of the Moon is Illuminated
Aug 29
Last Quarter
Sep 5
New
Sep 12
First Quarter
Sep 19
Full
Sep 26
Last Quarter

Hourly Weather History & Observations

Time (AKDT) Temp. Dew Point Humidity Pressure Visibility Wind Dir Wind Speed Gust Speed Precip Events Conditions
12:53 AM 53.1 °F 52.0 °F 96% 29.83 in 10.0 mi Calm Calm - N/A   Partly Cloudy
1:53 AM 53.1 °F 52.0 °F 96% 29.83 in 10.0 mi Calm Calm - N/A   Mostly Cloudy
2:53 AM 55.0 °F 53.1 °F 93% 29.82 in 10.0 mi Calm Calm - N/A   Overcast
3:53 AM 55.0 °F 54.0 °F 96% 29.83 in 10.0 mi Calm Calm - N/A   Overcast
4:53 AM 55.0 °F 54.0 °F 96% 29.81 in 10.0 mi Calm Calm - N/A   Overcast
5:53 AM 55.0 °F 54.0 °F 96% 29.81 in 10.0 mi Calm Calm - N/A   Overcast
6:53 AM 54.0 °F 53.1 °F 97% 29.80 in 10.0 mi Calm Calm - N/A   Mostly Cloudy
7:53 AM 57.9 °F 55.9 °F 93% 29.79 in 10.0 mi Calm Calm - N/A   Mostly Cloudy
8:53 AM 64.0 °F 57.0 °F 78% 29.78 in 10.0 mi NNW 5.8 mph - N/A   Mostly Cloudy
9:53 AM 63.0 °F 55.0 °F 75% 29.77 in 10.0 mi NNW 6.9 mph - N/A   Mostly Cloudy
10:53 AM 69.1 °F 55.0 °F 61% 29.76 in 10.0 mi Calm Calm - N/A   Overcast
11:53 AM 66.9 °F 54.0 °F 63% 29.75 in 10.0 mi Variable 3.5 mph - N/A   Mostly Cloudy
12:53 PM 66.0 °F 54.0 °F 65% 29.75 in 10.0 mi SE 4.6 mph - N/A   Overcast
1:53 PM 66.0 °F 53.1 °F 63% 29.76 in 10.0 mi South 3.5 mph - N/A   Overcast
2:53 PM 63.0 °F 54.0 °F 72% 29.77 in 10.0 mi SSE 5.8 mph - 0.00 in Rain Light Rain
3:53 PM 61.0 °F 57.0 °F 87% 29.77 in 9.0 mi SE 3.5 mph - 0.00 in Rain Light Rain
4:53 PM 60.1 °F 57.9 °F 93% 29.76 in 8.0 mi Calm Calm - 0.02 in Rain Light Rain
5:53 PM 61.0 °F 59.0 °F 93% 29.76 in 10.0 mi Calm Calm - 0.02 in   Overcast
6:53 PM 61.0 °F 60.1 °F 97% 29.75 in 7.0 mi NNW 3.5 mph - 0.01 in Rain Light Rain
7:53 PM 57.9 °F 57.9 °F 100% 29.75 in 10.0 mi Calm Calm - 0.00 in   Overcast
8:53 PM 57.9 °F 57.9 °F 100% 29.75 in 10.0 mi Calm Calm - 0.00 in   Overcast
9:53 PM 59.0 °F 57.9 °F 96% 29.75 in 10.0 mi NW 3.5 mph - N/A   Overcast
10:53 PM 59.0 °F 57.9 °F 96% 29.76 in 10.0 mi Calm Calm - 0.00 in Rain Light Rain
11:46 PM 59.0 °F 57.2 °F 94% 29.77 in 8.0 mi Calm Calm - 0.01 in Rain Light Rain
11:53 PM 59.0 °F 57.9 °F 96% 29.78 in 6.0 mi Calm Calm - 0.02 in Rain Rain